Regional Weather Roundup
Issued by NWS

Home | Current Version | Previous Version | Text Only | Print | Product List | Glossary Off
Versions: 1 2 3 4 5 6 7 8 9 10 11 12 13 14 15 16 17 18 19 20 21 22 23 24 25 26 27 28 29 30 31 32 33 34 35 36 37 38 39 40 41 42 43 44 45 46 47 48 49 50

000
ASUS43 KBIS 271802
RWRND

NORTH DAKOTA REGIONAL WEATHER ROUNDUP
NATIONAL WEATHER SERVICE BISMARCK ND
100 PM CDT THU JUL 27 2017

NOTE: "FAIR" INDICATES FEW OR NO CLOUDS BELOW 12,000 FEET WITH NO
SIGNIFICANT WEATHER AND/OR OBSTRUCTIONS TO VISIBILITY.


NDZ001>003-009>011-017-271900-
NORTHWEST NORTH DAKOTA

CITY           SKY/WX    TMP DP  RH WIND       PRES   REMARKS
WILLISTON      PTSUNNY   69  59  70 VRB6      30.02F
6HR MIN TEMP:  66; 6HR MAX TEMP:  69; 6HR PCP:  0.19;

MINOT          PTSUNNY   78  57  48 SE7       30.10F
MINOT AFB      CLOUDY    77  57  49 S8        30.09F
$$

NDZ018>021-031>035-040>046-271900-
SOUTHWEST NORTH DAKOTA

CITY           SKY/WX    TMP DP  RH WIND       PRES   REMARKS
BISMARCK       PTSUNNY   77  62  59 N9        30.14S
6HR MIN TEMP:  65; 6HR MAX TEMP:  79; 6HR PCP: TRACE;

DICKINSON      CLOUDY    81  59  47 E18G25    30.10F
GARRISON         N/A     69  62  78 CALM      30.09F
6HR MIN TEMP:  62; 6HR MAX TEMP:  69; 6HR PCP:  0.16;

HETTINGER ARPT SUNNY     86  55  34 SE16      30.11F
$$

NDZ004>008-012>016-024-026-027-054-271900-
NORTHEAST NORTH DAKOTA

CITY           SKY/WX    TMP DP  RH WIND       PRES   REMARKS
GRAND FORKS    PTSUNNY   83  58  42 CALM      30.11S
GRND FRKS AFB  SUNNY     83  56  39 CALM      30.12F
DEVILS LAKE    CLOUDY    78  57  48 S7        30.15S
$$

NDZ022-023-025-028>030-036>039-047>053-271900-
SOUTHEAST NORTH DAKOTA

CITY           SKY/WX    TMP DP  RH WIND       PRES   REMARKS
FARGO          MOSUNNY   81  61  50 N8        30.12S
6HR MIN TEMP:  58; 6HR MAX TEMP:  82;

JAMESTOWN      MOSUNNY   80  56  43 S7        30.14S
$$





USA.gov is the U.S. government's official web portal to all federal, state and local government web resources and services.